Location: Dessau
(51.7984°N, 12.2168°E)
Time: 10:08:22
(UTC+01:00)

ISS - Pass Details

Date: 08 January 2018
Orbit: 402 x 406 km, 51.6° (Epoch: 16 January)

Event Time Altitude Azimuth Distance (km) Brightness Sun altitude
Exits shadow 05:07:49 19° 87° (E) 1,033 -1.0 -28.0°
Drops below altitude 10° 05:08:53 10° 87° (E) 1,467 0.0 -27.8°
Sets 05:10:58 0° 87° (E) 2,329 1.3 -27.5°
